OneWeb SL0348

operational
NORAD ID: 49213 Int'l Des: 2021-083 Owner: ONEWEBN Country: UK Constellation: oneweb
LEOCIRCULARPOLARONEWEB_TYPE

OneWeb SL0348について

説明を読み込み中...

リアルタイム位置

3D地球を読み込み中...

次回通過

高度履歴

Altitude vs Time

uPlot chart will show altitude changes over time

軌道要素

1 49213U 21083AD 25259.17757480 -.00000030 00000-0 -10539-3 0 9991
2 49213 87.9266 329.0755 0002536 101.5808 258.5610 13.20771930200641
Epoch: Sep 16, 2025 • Age: 7 hours

現在のステータス

高度 1190.8 km
速度 7.26 km/s
衛星直下点 -21.34°S, 161.14°E
打ち上げ日 Sep 14, 2021
運用期間 4 years
タイプ internet

技術仕様

分類 Payload
質量 148.00 kg
乾燥質量 140.00 kg
総質量 148.00 kg
長さ 1.30 m
直径 1.00 m
スパン 5.00 m
形状 Trapezoid+2 pan
製造者 ONEWUS
バスタイプ ARROW
フェーズステータス In Orbit
所有者/国 ONEWEBN/UK

大規模コンステレーション

Loading constellations...